Starlink 35550

operational
NORAD ID: 66267 Int'l Des: 2025-247 Owner: SPXS Country: US Constellation: starlink
NOTLE

Starlink 35550について

説明を読み込み中...

リアルタイム位置

3D地球を読み込み中...

次回通過

高度履歴

Altitude vs Time

uPlot chart will show altitude changes over time

軌道要素

1 66267U 25247C 25352.03573742 .00023659 00000-0 59940-3 0 9990
2 66267 53.1581 211.2701 0001094 85.0632 275.0497 15.39630808 8526
Epoch: Dec 18, 2025 • Age: 19 hours

現在のステータス

高度 452.4 km
速度 7.65 km/s
衛星直下点 50.86°N, 66.52°W
打ち上げ日 Oct 31, 2025
運用期間 0.1 years
タイプ internet

技術仕様

分類 Payload
質量 575.00 kg
乾燥質量 530.00 kg
総質量 575.00 kg
長さ 0.30 m
直径 4.10 m
スパン 29.00 m
形状 Box + pan
製造者 SPXS
バスタイプ Starlink V2MO
フェーズステータス In Orbit
所有者/国 SPXS/US

大規模コンステレーション

Loading constellations...